Tracking 30070 objects as of 15-Jan-2025
HD Live streaming from Space Station
objects crossing your sky now

SAUDISAT 3

Track SAUDISAT 3 now!
10-day predictions
SAUDISAT 3 is classified as:


NORAD ID: 31118
Int'l Code: 2007-012B
Perigee: 654.3 km
Apogee: 677.1 km
Inclination: 98.1 °
Period: 97.9 minutes
Semi major axis: 7036 km
RCS: 0.633 m2 (medium)
Launch date: April 17, 2007
Source: Saudi Arabia (SAUD)
Launch site: TYURATAM MISSILE AND SPACE COMPLEX (TTMTR)
Your satellite tracking list
Your tracking list is empty




NASA's NSSDC Master Catalog

Two Line Element Set (TLE):
1 31118U 07012B   25015.39563935  .00000668  00000-0  11748-3 0  9994
2 31118  98.0825 322.7913 0016172  76.2960 284.0045 14.70784982951628
Source of the keplerian elements: AFSPC